This is the latest recevied weather packets stored in our database for station/object OK1VOF-13. If no packets are shown the sender has not sent any weather packets the latest 10 day(s).
| Time | Temp. | Humidity | Pressure | Rain* | Wind** | Luminosity | Snow |
|---|---|---|---|---|---|---|---|
| 1777665602 | 15° C | 42% | 1027.1 hPa | 0 mm | - | - | - |
| 1777665597 | 15° C | 42% | 1027.1 hPa | 0 mm | - | - | - |
| 1777665301 | 15° C | 42% | 1027 hPa | 0 mm | - | - | - |
| 1777665296 | 15° C | 42% | 1027 hPa | 0 mm | - | - | - |
| 1777664996 | 15° C | 43% | 1027.1 hPa | 0 mm | - | - | - |
| 1777664695 | 15° C | 41% | 1027 hPa | 0 mm | - | - | - |
| 1777664400 | 15.56° C | 41% | 1027 hPa | 0 mm | - | - | - |
| 1777664395 | 15.56° C | 41% | 1027 hPa | 0 mm | - | - | - |
| 1777664100 | 15.56° C | 41% | 1027 hPa | 0 mm | - | - | - |
| 1777664095 | 15.56° C | 41% | 1027 hPa | 0 mm | - | - | - |
| 1777663795 | 15.56° C | 41% | 1027 hPa | 0 mm | - | - | - |
| 1777663494 | 15.56° C | 40% | 1027 hPa | 0 mm | - | - | - |
| 1777663194 | 16.11° C | 41% | 1026.9 hPa | 0 mm | - | - | - |
| 1777662899 | 16.11° C | 39% | 1026.9 hPa | 0 mm | - | - | - |
| 1777662894 | 16.11° C | 39% | 1026.9 hPa | 0 mm | - | - | - |
| 1777662593 | 16.11° C | 41% | 1026.9 hPa | 0 mm | - | - | - |
| 1777662298 | 16.67° C | 37% | 1026.7 hPa | 0 mm | - | - | - |
| 1777662293 | 16.67° C | 37% | 1026.7 hPa | 0 mm | - | - | - |
| 1777661993 | 16.67° C | 40% | 1026.7 hPa | 0 mm | - | - | - |
| 1777661397 | 17.22° C | 35% | 1026.7 hPa | 0 mm | - | - | - |
| 1777661392 | 17.22° C | 35% | 1026.7 hPa | 0 mm | - | - | - |
| 1777661092 | 17.78° C | 34% | 1026.6 hPa | 0 mm | - | - | - |
| 1777660791 | 18.33° C | 34% | 1026.7 hPa | 0 mm | - | - | - |
| 1777660496 | 18.33° C | 32% | 1026.6 hPa | 0 mm | - | - | - |
| 1777660491 | 18.33° C | 32% | 1026.6 hPa | 0 mm | - | - | - |
* Rain latest hour (hover to see other rain measurements)
** Current wind speed in m/s (hover to see current wind gust speed)